Weather History for Arctic Village, AK

Change the Weather History Date:

Sunday, November 27, 2011

  Actual Average Record
Temperature  
Mean Temperature -32 °F -  
Max Temperature -27 °F -16 °F 40 °F (1962)
Min Temperature -36 °F -34 °F -49 °F (1971)
Degree Days  
Heating Degree Days 96    
Moisture  
Dew Point -28 °F    
Average Humidity 100    
Maximum Humidity 100    
Minimum Humidity 100    
Precipitation  
Precipitation 0.00 in - - ()
Sea Level Pressure  
Sea Level Pressure 29.61 in    
Wind  
Wind Speed 0 mph (North)    
Max Wind Speed 0 mph    
Max Gust Speed -    
Visibility 9 miles    
Events      
Averages and records for this station are not official NWS values.
T = Trace of Precipitation, MM = Missing Value Source: NWS Daily Summary

Daily Weather History Graph

Daily Weather History Graph

Search for Another Location

Airport:

Trip Planner

Search our weather history database for the weather conditions in past years. The results will help you decide how hot, cold, wet, or windy it might be!

Date:

Astronomy

Nov. 27, 2011 Rise Set
Actual Time 10:58 AM AKST 2:00 PM AKST
Civil Twilight 9:15 AM AKST 3:43 PM AKST
Nautical Twilight 7:55 AM AKST 5:03 PM AKST
Astronomical Twilight 6:46 AM AKST 6:12 PM AKST
Moon 1:48 PM AKST (11/27) 4:38 PM AKST (11/27)
Length of Visible Light 6h 27m
Length of Day
3h 01m
Waxing Crescent, 9% of the Moon is Illuminated
Nov 27
Waxing Crescent
Dec 2
First Quarter
Dec 10
Full
Dec 17
Last Quarter
Dec 24
New

Hourly Weather History & Observations

Time (AKST) Temp. Dew Point Humidity Pressure Visibility Wind Dir Wind Speed Gust Speed Precip Events Conditions
8:56 AM -27.4 °F - N/A% 29.61 in 10.0 mi Calm Calm - N/A   Clear
9:16 AM -34.6 °F - N/A% 29.61 in 10.0 mi Calm Calm - N/A   Clear
9:36 AM -31.0 °F - N/A% 29.61 in 10.0 mi Calm Calm - N/A   Clear
9:56 AM -32.8 °F - N/A% 29.61 in 9.0 mi Calm Calm - N/A   Clear
10:16 AM -32.8 °F - N/A% 29.62 in 10.0 mi Calm Calm - N/A   Clear
10:36 AM -32.8 °F - N/A% 29.62 in 10.0 mi Calm Calm - N/A   Clear
10:56 AM -29.2 °F - N/A% 29.62 in 10.0 mi Calm Calm - N/A   Clear
11:16 AM -31.0 °F - N/A% 29.62 in 10.0 mi Calm Calm - N/A   Clear
11:36 AM -36.4 °F - N/A% 29.62 in 10.0 mi Calm Calm - N/A   Clear
11:56 AM -32.8 °F - N/A% 29.62 in 5.0 mi Calm Calm - N/A   Clear
12:16 PM -36.4 °F - N/A% 29.62 in 9.0 mi Calm Calm - N/A   Clear
12:36 PM -27.4 °F - N/A% 29.61 in 10.0 mi Calm Calm - N/A   Clear
12:56 PM -27.4 °F - N/A% 29.61 in 10.0 mi Calm Calm - N/A   Clear
1:16 PM -34.6 °F - N/A% 29.62 in 10.0 mi Calm Calm - N/A   Clear
1:36 PM -34.6 °F - N/A% 29.61 in 8.0 mi Calm Calm - N/A   Clear
1:56 PM -31.0 °F - N/A% 29.61 in 10.0 mi Calm Calm - N/A   Clear
2:16 PM -34.6 °F - N/A% 29.61 in 5.0 mi Calm Calm - N/A   Clear
2:36 PM -32.8 °F - N/A% 29.61 in 1.8 mi Calm Calm - N/A   Clear
2:56 PM -31.0 °F - N/A% 29.61 in 10.0 mi Calm Calm - N/A   Clear
3:16 PM -29.2 °F - N/A% 29.61 in 10.0 mi Calm Calm - N/A   Clear
3:36 PM -32.8 °F - N/A% 29.61 in 10.0 mi Calm Calm - N/A   Clear
3:56 PM -34.6 °F - N/A% 29.60 in 10.0 mi Calm Calm - N/A   Clear
4:16 PM -29.2 °F - N/A% 29.60 in 10.0 mi Calm Calm - N/A   Clear
4:36 PM -34.6 °F - N/A% 29.60 in 10.0 mi Calm Calm - N/A   Clear
4:56 PM -34.6 °F - N/A% 29.60 in 10.0 mi Calm Calm - N/A   Clear
5:16 PM -29.2 °F - N/A% 29.60 in 10.0 mi Calm Calm - N/A   Clear
5:36 PM -27.4 °F -27.4 °F 100% 29.60 in 10.0 mi Calm Calm - N/A   Clear
5:56 PM -34.6 °F - N/A% 29.60 in 10.0 mi Calm Calm - N/A   Clear
6:16 PM -34.6 °F - N/A% 29.60 in 10.0 mi Calm Calm - N/A   Clear
6:36 PM -27.4 °F - N/A% 29.60 in 10.0 mi Calm Calm - N/A   Clear
6:56 PM -29.2 °F - N/A% 29.60 in 10.0 mi Calm Calm - N/A   Clear
7:16 PM -36.4 °F - N/A% 29.61 in 5.0 mi Calm Calm - N/A   Clear
7:36 PM -29.2 °F - N/A% 29.61 in 10.0 mi Calm Calm - N/A   Clear
8:16 PM -32.8 °F - N/A% 29.61 in 10.0 mi Calm Calm - N/A   Clear
8:36 PM -32.8 °F - N/A% 29.60 in 10.0 mi Calm Calm - N/A   Clear
8:56 PM -34.6 °F - N/A% 29.61 in 7.0 mi Calm Calm - N/A   Clear
9:16 PM -32.8 °F - N/A% 29.61 in 6.0 mi Calm Calm - N/A   Clear
9:36 PM -34.6 °F - N/A% 29.61 in 9.0 mi Calm Calm - N/A   Clear
9:56 PM -32.8 °F - N/A% 29.61 in 10.0 mi Calm Calm - N/A   Clear
10:16 PM -29.2 °F -29.2 °F 100% 29.61 in 10.0 mi Calm Calm - N/A   Clear
10:36 PM -32.8 °F - N/A% 29.61 in 9.0 mi Calm Calm - N/A   Clear
10:56 PM -32.8 °F - N/A% 29.61 in 9.0 mi Calm Calm - N/A   Clear
11:16 PM -27.4 °F - N/A% 29.61 in 10.0 mi Calm Calm - N/A   Clear
11:36 PM -31.0 °F - N/A% 29.61 in 10.0 mi Calm Calm - N/A   Clear
11:56 PM -32.8 °F - N/A% 29.61 in 10.0 mi Calm Calm - N/A   Clear